Location: Gro�wechsungen
(51.4926°N, 10.6901°E)
Time: 06:01:05
(UTC+00:00)

Cosmos 1626 - Pass Details

Date: 18 September 2020
Orbit: 490 x 495 km, 82.5° (Epoch: 19 October)

Event Time Altitude Azimuth Distance (km) Brightness Sun altitude
Rises 18:37:41 0° 2° (N) 2,591 6.0 -12.1°
Reaches altitude 10° 18:40:28 10° 25° (NNE) 1,701 4.8 -12.5°
Maximum altitude 18:42:51 16° 65° (ENE) 1,358 3.9 -12.9°
Enters shadow 18:43:14 16° 73° (ENE) 1,368 3.9 -12.9°
